Time,TemperatureF,DewpointF,PressureIn,WindDirection,WindDirectionDegrees,WindSpeedMPH,WindSpeedGustMPH,Humidity,HourlyPrecipIn,Conditions,Clouds,dailyrainin,SolarRadiationWatts/m^2,SoftwareType,DateUTC
2013-07-17 00:03:00,60.2,52.6,30.11,North,-999,0.0,12.0,76,0.00,,,0.00,0.00,VWS V14.01,2013-07-17 06:03:00,
2013-07-17 00:08:00,60.0,52.4,30.11,North,-999,4.0,4.0,76,0.00,,,0.00,0.00,VWS V14.01,2013-07-17 06:08:00,
2013-07-17 00:13:00,59.9,52.7,30.11,North,-999,6.0,8.0,77,0.00,,,0.00,0.00,VWS V14.01,2013-07-17 06:13:00,
2013-07-17 00:18:00,59.7,52.5,30.11,North,-999,0.0,5.0,77,0.00,,,0.00,0.00,VWS V14.01,2013-07-17 06:18:00,
2013-07-17 00:23:00,59.6,52.7,30.11,North,-999,0.0,8.0,78,0.00,,,0.00,0.00,VWS V14.01,2013-07-17 06:23:00,
2013-07-17 00:28:00,59.7,52.5,30.11,North,-999,0.0,4.0,77,0.00,,,0.00,0.00,VWS V14.01,2013-07-17 06:28:00,
2013-07-17 00:33:00,59.5,52.6,30.11,North,-999,0.0,4.0,78,0.00,,,0.00,0.00,VWS V14.01,2013-07-17 06:33:00,
2013-07-17 00:38:00,59.5,52.6,30.11,North,-999,0.0,0.0,78,0.00,,,0.00,0.00,VWS V14.01,2013-07-17 06:38:00,
2013-07-17 00:43:00,59.5,52.3,30.12,North,-999,6.0,9.0,77,0.00,,,0.00,0.00,VWS V14.01,2013-07-17 06:43:00,
2013-07-17 00:48:00,59.6,52.4,30.12,North,-999,4.0,10.0,77,0.00,,,0.00,0.00,VWS V14.01,2013-07-17 06:48:00,
2013-07-17 00:53:00,59.6,52.7,30.12,North,-999,5.0,10.0,78,0.00,,,0.00,0.00,VWS V14.01,2013-07-17 06:53:00,
2013-07-17 00:58:00,59.6,52.7,30.12,North,-999,0.0,5.0,78,0.00,,,0.00,0.00,VWS V14.01,2013-07-17 06:58:00,
2013-07-17 01:03:00,59.6,52.7,30.12,North,-999,0.0,6.0,78,0.00,,,0.00,0.00,VWS V14.01,2013-07-17 07:03:00,
2013-07-17 01:08:00,59.5,52.6,30.12,North,-999,5.0,5.0,78,0.00,,,0.00,0.00,VWS V14.01,2013-07-17 07:08:00,
2013-07-17 01:13:00,59.5,52.3,30.12,North,-999,0.0,5.0,77,0.00,,,0.00,0.00,VWS V14.01,2013-07-17 07:13:00,
2013-07-17 01:18:00,59.5,52.6,30.11,North,-999,0.0,0.0,78,0.00,,,0.00,0.00,VWS V14.01,2013-07-17 07:18:00,
2013-07-17 01:23:00,59.3,52.5,30.11,North,-999,0.0,7.0,78,0.00,,,0.00,0.00,VWS V14.01,2013-07-17 07:23:00,
2013-07-17 01:28:00,59.1,52.6,30.11,North,-999,0.0,0.0,79,0.00,,,0.00,0.00,VWS V14.01,2013-07-17 07:28:00,
2013-07-17 01:33:00,58.9,52.4,30.11,North,-999,2.0,5.0,79,0.00,,,0.00,0.00,VWS V14.01,2013-07-17 07:33:00,
2013-07-17 01:38:00,58.7,52.6,30.11,North,-999,0.0,0.0,80,0.00,,,0.00,0.00,VWS V14.01,2013-07-17 07:38:00,
2013-07-17 01:43:00,58.6,52.5,30.11,North,-999,0.0,0.0,80,0.00,,,0.00,0.00,VWS V14.01,2013-07-17 07:43:00,
2013-07-17 01:48:00,58.6,52.5,30.11,North,-999,0.0,0.0,80,0.00,,,0.00,0.00,VWS V14.01,2013-07-17 07:48:00,
2013-07-17 01:53:00,58.8,52.3,30.11,North,-999,0.0,0.0,79,0.00,,,0.00,0.00,VWS V14.01,2013-07-17 07:53:00,
2013-07-17 01:58:00,58.9,52.4,30.11,North,-999,0.0,0.0,79,0.00,,,0.00,0.00,VWS V14.01,2013-07-17 07:58:00,
2013-07-17 02:03:00,59.0,52.5,30.11,North,-999,0.0,0.0,79,0.00,,,0.00,0.00,VWS V14.01,2013-07-17 08:03:00,
2013-07-17 02:08:00,59.0,52.5,30.11,North,-999,0.0,0.0,79,0.00,,,0.00,0.00,VWS V14.01,2013-07-17 08:08:00,
2013-07-17 02:13:00,58.8,52.7,30.11,North,-999,0.0,0.0,80,0.00,,,0.00,0.00,VWS V14.01,2013-07-17 08:13:00,
2013-07-17 02:18:00,58.6,52.8,30.11,North,-999,0.0,0.0,81,0.00,,,0.00,0.00,VWS V14.01,2013-07-17 08:18:00,
2013-07-17 02:23:00,58.4,53.3,30.10,North,-999,0.0,0.0,83,0.00,,,0.00,0.00,VWS V14.01,2013-07-17 08:23:00,
2013-07-17 02:28:00,58.2,53.4,30.10,North,-999,0.0,0.0,84,0.00,,,0.00,0.00,VWS V14.01,2013-07-17 08:28:00,
2013-07-17 02:33:00,58.0,53.8,30.11,North,-999,0.0,0.0,86,0.00,,,0.00,0.00,VWS V14.01,2013-07-17 08:33:00,
2013-07-17 02:38:00,57.7,54.2,30.10,North,-999,0.0,0.0,88,0.00,,,0.00,0.00,VWS V14.01,2013-07-17 08:38:00,
2013-07-17 02:43:00,57.5,54.0,30.10,North,-999,0.0,0.0,88,0.00,,,0.00,0.00,VWS V14.01,2013-07-17 08:43:00,
2013-07-17 02:48:00,57.5,54.0,30.10,North,-999,0.0,0.0,88,0.00,,,0.00,0.00,VWS V14.01,2013-07-17 08:48:00,
2013-07-17 02:53:00,57.5,54.0,30.10,North,-999,0.0,0.0,88,0.00,,,0.00,0.00,VWS V14.01,2013-07-17 08:53:00,
2013-07-17 02:58:00,57.6,53.8,30.10,North,-999,0.0,0.0,87,0.00,,,0.00,0.00,VWS V14.01,2013-07-17 08:58:00,
2013-07-17 03:03:00,57.7,53.9,30.10,North,-999,0.0,0.0,87,0.00,,,0.00,0.00,VWS V14.01,2013-07-17 09:03:00,
2013-07-17 03:08:00,57.6,54.1,30.10,North,-999,0.0,0.0,88,0.00,,,0.00,0.00,VWS V14.01,2013-07-17 09:08:00,
2013-07-17 03:13:00,57.6,54.1,30.10,North,-999,2.0,4.0,88,0.00,,,0.00,0.00,VWS V14.01,2013-07-17 09:13:00,
2013-07-17 03:18:00,57.6,54.1,30.10,North,-999,4.0,4.0,88,0.00,,,0.00,0.00,VWS V14.01,2013-07-17 09:18:00,
2013-07-17 03:23:00,57.7,54.2,30.10,North,-999,0.0,4.0,88,0.00,,,0.00,0.00,VWS V14.01,2013-07-17 09:23:00,
2013-07-17 03:28:00,57.7,54.2,30.10,North,-999,0.0,0.0,88,0.00,,,0.00,0.00,VWS V14.01,2013-07-17 09:28:00,
2013-07-17 03:33:00,57.7,54.2,30.11,North,-999,0.0,0.0,88,0.00,,,0.00,0.00,VWS V14.01,2013-07-17 09:33:00,
2013-07-17 03:38:00,57.7,53.9,30.10,North,-999,0.0,0.0,87,0.00,,,0.00,0.00,VWS V14.01,2013-07-17 09:38:00,
2013-07-17 03:43:00,57.7,53.9,30.10,North,-999,0.0,0.0,87,0.00,,,0.00,0.00,VWS V14.01,2013-07-17 09:43:00,
2013-07-17 03:48:00,57.5,54.0,30.11,North,-999,4.0,6.0,88,0.00,,,0.00,0.00,VWS V14.01,2013-07-17 09:48:00,
2013-07-17 03:53:00,57.3,53.8,30.11,North,-999,0.0,6.0,88,0.00,,,0.00,0.00,VWS V14.01,2013-07-17 09:53:00,
2013-07-17 03:58:00,57.3,53.8,30.11,North,-999,0.0,0.0,88,0.00,,,0.00,0.00,VWS V14.01,2013-07-17 09:58:00,
2013-07-17 04:03:00,57.4,53.9,30.11,North,-999,0.0,0.0,88,0.00,,,0.00,0.00,VWS V14.01,2013-07-17 10:03:00,
2013-07-17 04:08:00,57.4,54.2,30.11,North,-999,0.0,0.0,89,0.00,,,0.00,0.00,VWS V14.01,2013-07-17 10:08:00,
2013-07-17 04:13:00,57.4,53.9,30.10,North,-999,0.0,0.0,88,0.00,,,0.00,0.00,VWS V14.01,2013-07-17 10:13:00,
2013-07-17 04:18:00,57.5,54.0,30.10,North,-999,0.0,0.0,88,0.00,,,0.00,0.00,VWS V14.01,2013-07-17 10:18:00,
2013-07-17 04:23:00,57.6,54.1,30.10,North,-999,0.0,0.0,88,0.00,,,0.00,0.00,VWS V14.01,2013-07-17 10:23:00,
2013-07-17 04:28:00,57.6,54.1,30.10,North,-999,0.0,0.0,88,0.00,,,0.00,0.00,VWS V14.01,2013-07-17 10:28:00,
2013-07-17 04:33:00,57.6,54.1,30.10,North,-999,0.0,0.0,88,0.00,,,0.00,0.00,VWS V14.01,2013-07-17 10:33:00,
2013-07-17 04:38:00,57.6,54.4,30.10,North,-999,0.0,0.0,89,0.00,,,0.00,0.00,VWS V14.01,2013-07-17 10:38:00,
2013-07-17 04:43:00,57.6,54.4,30.10,North,-999,0.0,0.0,89,0.00,,,0.00,0.00,VWS V14.01,2013-07-17 10:43:00,
2013-07-17 04:48:00,57.5,54.3,30.10,North,-999,0.0,0.0,89,0.00,,,0.00,0.00,VWS V14.01,2013-07-17 10:48:00,
2013-07-17 04:53:00,57.5,54.3,30.10,North,-999,0.0,0.0,89,0.00,,,0.00,0.00,VWS V14.01,2013-07-17 10:53:00,
2013-07-17 04:58:00,57.5,54.0,30.11,North,-999,0.0,0.0,88,0.00,,,0.00,0.00,VWS V14.01,2013-07-17 10:58:00,
2013-07-17 05:03:00,57.6,54.4,30.11,North,-999,0.0,0.0,89,0.00,,,0.00,0.00,VWS V14.01,2013-07-17 11:03:00,
2013-07-17 05:08:00,57.4,54.5,30.11,North,-999,0.0,0.0,90,0.00,,,0.00,0.00,VWS V14.01,2013-07-17 11:08:00,
2013-07-17 05:13:00,57.1,53.9,30.11,North,-999,0.0,0.0,89,0.00,,,0.00,0.00,VWS V14.01,2013-07-17 11:13:00,
2013-07-17 05:18:00,56.9,53.7,30.10,North,-999,0.0,0.0,89,0.00,,,0.00,0.00,VWS V14.01,2013-07-17 11:18:00,
2013-07-17 05:23:00,56.7,53.8,30.10,North,-999,0.0,0.0,90,0.00,,,0.00,0.00,VWS V14.01,2013-07-17 11:23:00,
2013-07-17 05:28:00,56.5,53.6,30.10,North,-999,0.0,0.0,90,0.00,,,0.00,0.00,VWS V14.01,2013-07-17 11:28:00,
2013-07-17 05:33:00,56.4,53.5,30.10,North,-999,0.0,0.0,90,0.00,,,0.00,0.00,VWS V14.01,2013-07-17 11:33:00,
2013-07-17 05:38:00,56.3,53.4,30.11,North,-999,0.0,0.0,90,0.00,,,0.00,0.00,VWS V14.01,2013-07-17 11:38:00,
2013-07-17 05:43:00,56.2,53.3,30.10,North,-999,0.0,0.0,90,0.00,,,0.00,0.00,VWS V14.01,2013-07-17 11:43:00,
2013-07-17 05:48:00,56.2,53.3,30.10,North,-999,0.0,0.0,90,0.00,,,0.00,0.00,VWS V14.01,2013-07-17 11:48:00,
2013-07-17 05:53:00,56.2,53.3,30.10,North,-999,0.0,0.0,90,0.00,,,0.00,7.00,VWS V14.01,2013-07-17 11:53:00,
2013-07-17 05:58:00,56.3,53.4,30.10,North,-999,0.0,0.0,90,0.00,,,0.00,18.00,VWS V14.01,2013-07-17 11:58:00,
2013-07-17 06:03:00,56.5,53.6,30.10,North,-999,0.0,0.0,90,0.00,,,0.00,19.00,VWS V14.01,2013-07-17 12:03:00,
2013-07-17 06:08:00,56.6,53.7,30.11,North,-999,0.0,0.0,90,0.00,,,0.00,18.00,VWS V14.01,2013-07-17 12:08:00,
2013-07-17 06:13:00,56.6,53.7,30.11,North,-999,0.0,0.0,90,0.00,,,0.00,18.00,VWS V14.01,2013-07-17 12:13:00,
2013-07-17 06:18:00,56.7,53.8,30.11,North,-999,0.0,0.0,90,0.00,,,0.00,19.00,VWS V14.01,2013-07-17 12:18:00,
2013-07-17 06:23:00,56.8,53.9,30.11,North,-999,0.0,3.0,90,0.00,,,0.00,21.00,VWS V14.01,2013-07-17 12:23:00,
2013-07-17 06:28:00,57.0,54.1,30.11,North,-999,0.0,0.0,90,0.00,,,0.00,19.00,VWS V14.01,2013-07-17 12:28:00,
2013-07-17 06:33:00,57.1,54.2,30.11,North,-999,0.0,1.0,90,0.00,,,0.00,19.00,VWS V14.01,2013-07-17 12:33:00,
2013-07-17 06:38:00,57.2,54.3,30.11,North,-999,0.0,0.0,90,0.00,,,0.00,21.00,VWS V14.01,2013-07-17 12:38:00,
2013-07-17 06:43:00,57.2,54.3,30.11,North,-999,0.0,0.0,90,0.00,,,0.00,25.00,VWS V14.01,2013-07-17 12:43:00,
2013-07-17 06:48:00,57.3,54.4,30.11,North,-999,0.0,0.0,90,0.00,,,0.00,28.00,VWS V14.01,2013-07-17 12:48:00,
2013-07-17 06:53:00,57.4,54.5,30.11,North,-999,0.0,0.0,90,0.00,,,0.00,32.00,VWS V14.01,2013-07-17 12:53:00,
2013-07-17 06:58:00,57.5,54.6,30.11,North,-999,0.0,0.0,90,0.00,,,0.00,33.00,VWS V14.01,2013-07-17 12:58:00,
2013-07-17 07:03:00,57.4,54.5,30.10,North,-999,0.0,0.0,90,0.00,,,0.00,39.00,VWS V14.01,2013-07-17 13:03:00,
2013-07-17 07:08:00,57.5,54.6,30.11,North,-999,0.0,0.0,90,0.00,,,0.00,67.00,VWS V14.01,2013-07-17 13:08:00,
2013-07-17 07:13:00,57.6,55.0,30.10,North,-999,0.0,0.0,91,0.00,,,0.00,84.00,VWS V14.01,2013-07-17 13:13:00,
2013-07-17 07:18:00,57.8,55.2,30.10,North,-999,0.0,0.0,91,0.00,,,0.00,79.00,VWS V14.01,2013-07-17 13:18:00,
2013-07-17 07:23:00,58.0,55.1,30.10,North,-999,0.0,0.0,90,0.00,,,0.00,70.00,VWS V14.01,2013-07-17 13:23:00,
2013-07-17 07:28:00,58.2,55.3,30.11,North,-999,0.0,0.0,90,0.00,,,0.00,60.00,VWS V14.01,2013-07-17 13:28:00,
2013-07-17 07:33:00,58.5,55.6,30.11,North,-999,0.0,0.0,90,0.00,,,0.00,63.00,VWS V14.01,2013-07-17 13:33:00,
2013-07-17 07:38:00,58.6,55.4,30.11,North,-999,0.0,0.0,89,0.00,,,0.00,84.00,VWS V14.01,2013-07-17 13:38:00,
2013-07-17 07:42:00,58.9,55.7,30.11,North,-999,0.0,0.0,89,0.00,,,0.00,118.00,VWS V14.01,2013-07-17 13:42:00,
2013-07-17 07:47:00,59.3,55.8,30.11,North,-999,0.0,0.0,88,0.00,,,0.00,125.00,VWS V14.01,2013-07-17 13:47:00,
2013-07-17 07:52:00,59.7,55.8,30.12,North,-999,0.0,0.0,87,0.00,,,0.00,132.00,VWS V14.01,2013-07-17 13:52:00,
2013-07-17 07:57:00,60.0,55.8,30.12,North,-999,0.0,0.0,86,0.00,,,0.00,151.00,VWS V14.01,2013-07-17 13:57:00,
2013-07-17 08:02:00,60.4,55.9,30.12,North,-999,0.0,0.0,85,0.00,,,0.00,276.00,VWS V14.01,2013-07-17 14:02:00,
2013-07-17 08:08:00,60.7,55.2,30.12,North,-999,0.0,0.0,82,0.00,,,0.00,116.00,VWS V14.01,2013-07-17 14:08:00,
2013-07-17 08:13:00,61.0,55.1,30.12,North,-999,0.0,0.0,81,0.00,,,0.00,113.00,VWS V14.01,2013-07-17 14:13:00,
2013-07-17 08:18:00,61.2,55.0,30.11,North,-999,0.0,0.0,80,0.00,,,0.00,142.00,VWS V14.01,2013-07-17 14:18:00,
2013-07-17 08:23:00,61.5,55.3,30.11,North,-999,0.0,0.0,80,0.00,,,0.00,162.00,VWS V14.01,2013-07-17 14:23:00,
2013-07-17 08:28:00,61.8,55.2,30.11,North,-999,0.0,0.0,79,0.00,,,0.00,149.00,VWS V14.01,2013-07-17 14:28:00,
2013-07-17 08:33:00,62.1,54.8,30.11,North,-999,0.0,0.0,77,0.00,,,0.00,149.00,VWS V14.01,2013-07-17 14:33:00,
2013-07-17 08:37:00,62.3,54.7,30.11,North,-999,0.0,0.0,76,0.00,,,0.00,158.00,VWS V14.01,2013-07-17 14:37:00,
2013-07-17 08:42:00,62.5,54.8,30.11,North,-999,0.0,0.0,76,0.00,,,0.00,158.00,VWS V14.01,2013-07-17 14:42:00,
2013-07-17 08:47:00,62.7,54.7,30.11,North,-999,0.0,0.0,75,0.00,,,0.00,153.00,VWS V14.01,2013-07-17 14:47:00,
2013-07-17 08:52:00,62.8,54.8,30.11,North,-999,0.0,0.0,75,0.00,,,0.00,167.00,VWS V14.01,2013-07-17 14:52:00,
2013-07-17 08:57:00,63.0,55.0,30.10,North,-999,0.0,0.0,75,0.00,,,0.00,193.00,VWS V14.01,2013-07-17 14:57:00,
2013-07-17 09:02:00,63.0,55.0,30.10,North,-999,0.0,0.0,75,0.00,,,0.00,211.00,VWS V14.01,2013-07-17 15:02:00,
2013-07-17 09:07:00,63.2,55.2,30.10,North,-999,0.0,0.0,75,0.00,,,0.00,220.00,VWS V14.01,2013-07-17 15:07:00,
2013-07-17 09:12:00,63.4,55.0,30.10,North,-999,0.0,0.0,74,0.00,,,0.00,234.00,VWS V14.01,2013-07-17 15:12:00,
2013-07-17 09:17:00,63.5,55.8,30.10,North,-999,0.0,0.0,76,0.00,,,0.00,267.00,VWS V14.01,2013-07-17 15:17:00,
2013-07-17 09:22:00,64.0,55.9,30.10,North,-999,0.0,0.0,75,0.00,,,0.00,369.00,VWS V14.01,2013-07-17 15:22:00,
2013-07-17 09:27:00,64.4,55.9,30.10,North,-999,0.0,0.0,74,0.00,,,0.00,392.00,VWS V14.01,2013-07-17 15:27:00,
2013-07-17 09:32:00,64.8,56.0,30.10,North,-999,0.0,0.0,73,0.00,,,0.00,424.00,VWS V14.01,2013-07-17 15:32:00,
2013-07-17 09:37:00,65.5,55.9,30.10,North,-999,0.0,0.0,71,0.00,,,0.00,346.00,VWS V14.01,2013-07-17 15:37:00,
2013-07-17 09:42:00,65.9,55.8,30.10,North,-999,0.0,0.0,70,0.00,,,0.00,557.00,VWS V14.01,2013-07-17 15:42:00,
2013-07-17 09:47:00,66.1,56.4,30.10,North,-999,1.0,1.0,71,0.00,,,0.00,800.00,VWS V14.01,2013-07-17 15:47:00,
2013-07-17 09:52:00,66.6,55.7,30.10,North,-999,0.0,3.0,68,0.00,,,0.00,691.00,VWS V14.01,2013-07-17 15:52:00,
2013-07-17 09:57:00,66.8,56.3,30.10,North,-999,1.0,1.0,69,0.00,,,0.00,367.00,VWS V14.01,2013-07-17 15:57:00,
2013-07-17 10:02:00,66.8,56.3,30.10,North,-999,3.0,5.0,69,0.00,,,0.00,367.00,VWS V14.01,2013-07-17 16:02:00,
2013-07-17 10:07:00,66.7,56.2,30.10,North,-999,0.0,0.0,69,0.00,,,0.00,406.00,VWS V14.01,2013-07-17 16:07:00,
2013-07-17 10:12:00,67.1,56.2,30.09,North,-999,0.0,0.0,68,0.00,,,0.00,471.00,VWS V14.01,2013-07-17 16:12:00,
2013-07-17 10:17:00,67.5,56.6,30.09,North,-999,0.0,0.0,68,0.00,,,0.00,921.00,VWS V14.01,2013-07-17 16:17:00,
2013-07-17 10:22:00,67.9,57.0,30.09,North,-999,0.0,0.0,68,0.00,,,0.00,552.00,VWS V14.01,2013-07-17 16:22:00,
2013-07-17 10:27:00,68.4,57.4,30.09,North,-999,0.0,0.0,68,0.00,,,0.00,489.00,VWS V14.01,2013-07-17 16:27:00,
2013-07-17 10:32:00,69.0,57.2,30.09,North,-999,4.0,7.0,66,0.00,,,0.00,418.00,VWS V14.01,2013-07-17 16:32:00,
2013-07-17 10:37:00,68.7,57.3,30.09,North,-999,2.0,2.0,67,0.00,,,0.00,464.00,VWS V14.01,2013-07-17 16:37:00,
2013-07-17 10:42:00,69.0,57.2,30.09,North,-999,2.0,6.0,66,0.00,,,0.00,835.00,VWS V14.01,2013-07-17 16:42:00,
2013-07-17 10:47:00,69.5,57.7,30.09,North,-999,4.0,6.0,66,0.00,,,0.00,457.00,VWS V14.01,2013-07-17 16:47:00,
2013-07-17 10:52:00,69.2,57.4,30.08,North,-999,2.0,5.0,66,0.00,,,0.00,594.00,VWS V14.01,2013-07-17 16:52:00,
2013-07-17 10:57:00,69.7,57.4,30.08,North,-999,2.0,8.0,65,0.00,,,0.00,951.00,VWS V14.01,2013-07-17 16:57:00,
2013-07-17 11:02:00,70.3,57.6,30.08,North,-999,4.0,6.0,64,0.00,,,0.00,974.00,VWS V14.01,2013-07-17 17:02:00,
2013-07-17 11:07:00,70.1,56.9,30.08,North,-999,0.0,7.0,63,0.00,,,0.00,786.00,VWS V14.01,2013-07-17 17:07:00,
2013-07-17 11:12:00,70.3,56.7,30.08,North,-999,0.0,5.0,62,0.00,,,0.00,786.00,VWS V14.01,2013-07-17 17:12:00,
2013-07-17 11:17:00,70.8,57.2,30.08,North,-999,0.0,5.0,62,0.00,,,0.00,694.00,VWS V14.01,2013-07-17 17:17:00,
2013-07-17 11:22:00,71.5,57.4,30.08,North,-999,0.0,5.0,61,0.00,,,0.00,438.00,VWS V14.01,2013-07-17 17:22:00,
2013-07-17 11:27:00,71.9,56.8,30.08,North,-999,3.0,5.0,59,0.00,,,0.00,341.00,VWS V14.01,2013-07-17 17:27:00,
2013-07-17 11:32:00,72.1,57.0,30.08,North,-999,0.0,2.0,59,0.00,,,0.00,601.00,VWS V14.01,2013-07-17 17:32:00,
2013-07-17 11:37:00,73.1,57.0,30.08,North,-999,2.0,6.0,57,0.00,,,0.00,454.00,VWS V14.01,2013-07-17 17:37:00,
2013-07-17 11:42:00,73.5,57.3,30.07,North,-999,0.0,4.0,57,0.00,,,0.00,733.00,VWS V14.01,2013-07-17 17:42:00,
2013-07-17 11:47:00,73.4,58.7,30.07,North,-999,3.0,7.0,60,0.00,,,0.00,837.00,VWS V14.01,2013-07-17 17:47:00,
2013-07-17 11:52:00,73.3,59.0,30.07,North,-999,3.0,6.0,61,0.00,,,0.00,916.00,VWS V14.01,2013-07-17 17:52:00,
2013-07-17 11:57:00,73.3,59.5,30.07,North,-999,0.0,6.0,62,0.00,,,0.00,554.00,VWS V14.01,2013-07-17 17:57:00,
2013-07-17 12:02:00,73.3,59.0,30.07,North,-999,9.0,9.0,61,0.00,,,0.00,933.00,VWS V14.01,2013-07-17 18:02:00,
2013-07-17 12:07:00,72.9,58.2,30.07,North,-999,6.0,9.0,60,0.00,,,0.00,911.00,VWS V14.01,2013-07-17 18:07:00,
2013-07-17 12:12:00,73.2,58.0,30.07,North,-999,4.0,7.0,59,0.00,,,0.00,947.00,VWS V14.01,2013-07-17 18:12:00,
2013-07-17 12:17:00,73.6,58.4,30.07,North,-999,1.0,8.0,59,0.00,,,0.00,970.00,VWS V14.01,2013-07-17 18:17:00,
2013-07-17 12:22:00,74.3,58.1,30.07,North,-999,4.0,9.0,57,0.00,,,0.00,1025.00,VWS V14.01,2013-07-17 18:22:00,
2013-07-17 12:27:00,75.1,57.3,30.07,North,-999,3.0,10.0,54,0.00,,,0.00,802.00,VWS V14.01,2013-07-17 18:27:00,
2013-07-17 12:32:00,75.9,57.6,30.07,North,-999,5.0,6.0,53,0.00,,,0.00,366.00,VWS V14.01,2013-07-17 18:32:00,
2013-07-17 12:37:00,75.2,56.4,30.07,North,-999,0.0,6.0,52,0.00,,,0.00,408.00,VWS V14.01,2013-07-17 18:37:00,
2013-07-17 12:42:00,75.1,56.8,30.07,North,-999,0.0,0.0,53,0.00,,,0.00,779.00,VWS V14.01,2013-07-17 18:42:00,
2013-07-17 12:47:00,75.6,57.3,30.06,North,-999,0.0,0.0,53,0.00,,,0.00,877.00,VWS V14.01,2013-07-17 18:47:00,
2013-07-17 12:52:00,76.1,57.2,30.06,North,-999,0.0,4.0,52,0.00,,,0.00,877.00,VWS V14.01,2013-07-17 18:52:00,
2013-07-17 12:57:00,76.4,57.5,30.05,North,-999,4.0,6.0,52,0.00,,,0.00,979.00,VWS V14.01,2013-07-17 18:57:00,
2013-07-17 13:02:00,76.6,58.2,30.05,North,-999,5.0,5.0,53,0.00,,,0.00,812.00,VWS V14.01,2013-07-17 19:02:00,
2013-07-17 13:07:00,76.2,57.8,30.05,North,-999,0.0,7.0,53,0.00,,,0.00,788.00,VWS V14.01,2013-07-17 19:07:00,
2013-07-17 13:12:00,76.8,58.9,30.05,North,-999,4.0,5.0,54,0.00,,,0.00,540.00,VWS V14.01,2013-07-17 19:12:00,
2013-07-17 13:17:00,76.9,59.0,30.05,North,-999,5.0,6.0,54,0.00,,,0.00,441.00,VWS V14.01,2013-07-17 19:17:00,
2013-07-17 13:22:00,76.8,58.4,30.05,North,-999,0.0,5.0,53,0.00,,,0.00,448.00,VWS V14.01,2013-07-17 19:22:00,
2013-07-17 13:27:00,76.8,57.9,30.05,North,-999,0.0,5.0,52,0.00,,,0.00,582.00,VWS V14.01,2013-07-17 19:27:00,
2013-07-17 13:32:00,76.9,58.0,30.04,North,-999,0.0,3.0,52,0.00,,,0.00,436.00,VWS V14.01,2013-07-17 19:32:00,
2013-07-17 13:37:00,77.1,59.2,30.04,North,-999,0.0,4.0,54,0.00,,,0.00,431.00,VWS V14.01,2013-07-17 19:37:00,
2013-07-17 13:42:00,77.1,59.2,30.04,North,-999,3.0,6.0,54,0.00,,,0.00,452.00,VWS V14.01,2013-07-17 19:42:00,
2013-07-17 13:47:00,76.9,59.0,30.04,North,-999,3.0,6.0,54,0.00,,,0.00,496.00,VWS V14.01,2013-07-17 19:47:00,
2013-07-17 13:52:00,77.0,60.1,30.04,North,-999,5.0,6.0,56,0.00,,,0.00,645.00,VWS V14.01,2013-07-17 19:52:00,
2013-07-17 13:57:00,77.1,59.2,30.04,North,-999,2.0,7.0,54,0.00,,,0.00,487.00,VWS V14.01,2013-07-17 19:57:00,
2013-07-17 14:02:00,77.5,60.1,30.04,North,-999,2.0,5.0,55,0.00,,,0.00,431.00,VWS V14.01,2013-07-17 20:02:00,
2013-07-17 14:07:00,77.9,59.9,30.04,North,-999,0.0,6.0,54,0.00,,,0.00,411.00,VWS V14.01,2013-07-17 20:07:00,
2013-07-17 14:12:00,77.8,59.8,30.03,North,-999,4.0,7.0,54,0.00,,,0.00,424.00,VWS V14.01,2013-07-17 20:12:00,
2013-07-17 14:17:00,77.6,59.1,30.03,North,-999,0.0,7.0,53,0.00,,,0.00,401.00,VWS V14.01,2013-07-17 20:17:00,
2013-07-17 14:22:00,77.8,58.8,30.03,North,-999,1.0,5.0,52,0.00,,,0.00,378.00,VWS V14.01,2013-07-17 20:22:00,
2013-07-17 14:27:00,77.8,59.3,30.02,North,-999,2.0,6.0,53,0.00,,,0.00,376.00,VWS V14.01,2013-07-17 20:27:00,
2013-07-17 14:32:00,78.2,58.6,30.03,North,-999,0.0,0.0,51,0.00,,,0.00,473.00,VWS V14.01,2013-07-17 20:32:00,
2013-07-17 14:37:00,78.7,60.2,30.02,North,-999,0.0,5.0,53,0.00,,,0.00,584.00,VWS V14.01,2013-07-17 20:37:00,
2013-07-17 14:42:00,79.0,59.3,30.02,North,-999,3.0,6.0,51,0.00,,,0.00,471.00,VWS V14.01,2013-07-17 20:42:00,
2013-07-17 14:47:00,79.1,58.9,30.02,North,-999,2.0,6.0,50,0.00,,,0.00,373.00,VWS V14.01,2013-07-17 20:47:00,
2013-07-17 14:52:00,79.3,59.6,30.02,North,-999,3.0,5.0,51,0.00,,,0.00,415.00,VWS V14.01,2013-07-17 20:52:00,
2013-07-17 14:57:00,79.6,58.8,30.02,North,-999,3.0,5.0,49,0.00,,,0.00,503.00,VWS V14.01,2013-07-17 20:57:00,
2013-07-17 15:02:00,80.0,59.1,30.01,North,-999,0.0,0.0,49,0.00,,,0.00,508.00,VWS V14.01,2013-07-17 21:02:00,
2013-07-17 15:07:00,80.5,58.4,30.01,North,-999,0.0,4.0,47,0.00,,,0.00,613.00,VWS V14.01,2013-07-17 21:07:00,
2013-07-17 15:12:00,81.0,58.9,30.01,North,-999,0.0,0.0,47,0.00,,,0.00,1176.00,VWS V14.01,2013-07-17 21:12:00,
2013-07-17 15:17:00,82.0,59.2,30.01,North,-999,0.0,0.0,46,0.00,,,0.00,1146.00,VWS V14.01,2013-07-17 21:17:00,
2013-07-17 15:22:00,82.6,58.5,30.01,North,-999,1.0,5.0,44,0.00,,,0.00,1048.00,VWS V14.01,2013-07-17 21:22:00,
2013-07-17 15:27:00,83.1,59.0,30.01,North,-999,7.0,7.0,44,0.00,,,0.00,962.00,VWS V14.01,2013-07-17 21:27:00,
2013-07-17 15:32:00,83.2,58.4,30.01,North,-999,1.0,5.0,43,0.00,,,0.00,988.00,VWS V14.01,2013-07-17 21:32:00,
2013-07-17 15:36:00,83.9,59.0,30.01,North,-999,4.0,7.0,43,0.00,,,0.00,949.00,VWS V14.01,2013-07-17 21:36:00,
2013-07-17 15:41:00,84.0,58.5,30.01,North,-999,0.0,7.0,42,0.00,,,0.00,773.00,VWS V14.01,2013-07-17 21:41:00,
2013-07-17 15:46:00,84.4,59.5,30.01,North,-999,0.0,7.0,43,0.00,,,0.00,888.00,VWS V14.01,2013-07-17 21:46:00,
2013-07-17 15:51:00,85.3,59.0,30.00,North,-999,5.0,9.0,41,0.00,,,0.00,888.00,VWS V14.01,2013-07-17 21:51:00,
2013-07-17 15:56:00,84.7,58.4,30.00,North,-999,3.0,9.0,41,0.00,,,0.00,413.00,VWS V14.01,2013-07-17 21:56:00,
2013-07-17 16:01:00,84.2,58.0,30.00,North,-999,1.0,8.0,41,0.00,,,0.00,879.00,VWS V14.01,2013-07-17 22:01:00,
2013-07-17 16:06:00,84.6,59.7,30.00,North,-999,5.0,8.0,43,0.00,,,0.00,826.00,VWS V14.01,2013-07-17 22:06:00,
2013-07-17 16:11:00,85.0,60.0,30.00,North,-999,5.0,7.0,43,0.00,,,0.00,756.00,VWS V14.01,2013-07-17 22:11:00,
2013-07-17 16:16:00,85.0,58.7,30.00,North,-999,1.0,7.0,41,0.00,,,0.00,726.00,VWS V14.01,2013-07-17 22:16:00,
2013-07-17 16:21:00,85.0,58.7,30.00,North,-999,0.0,9.0,41,0.00,,,0.00,715.00,VWS V14.01,2013-07-17 22:21:00,
2013-07-17 16:26:00,85.5,59.1,29.99,North,-999,4.0,9.0,41,0.00,,,0.00,707.00,VWS V14.01,2013-07-17 22:26:00,
2013-07-17 16:31:00,86.1,59.0,29.99,North,-999,7.0,10.0,40,0.00,,,0.00,691.00,VWS V14.01,2013-07-17 22:31:00,
2013-07-17 16:36:00,86.2,59.1,29.99,North,-999,3.0,10.0,40,0.00,,,0.00,668.00,VWS V14.01,2013-07-17 22:36:00,
2013-07-17 16:41:00,86.0,58.2,29.99,North,-999,5.0,10.0,39,0.00,,,0.00,656.00,VWS V14.01,2013-07-17 22:41:00,
2013-07-17 16:46:00,86.0,58.2,29.99,North,-999,3.0,10.0,39,0.00,,,0.00,643.00,VWS V14.01,2013-07-17 22:46:00,
2013-07-17 16:51:00,85.8,58.0,29.99,North,-999,1.0,6.0,39,0.00,,,0.00,619.00,VWS V14.01,2013-07-17 22:51:00,
2013-07-17 16:56:00,85.9,58.1,29.98,North,-999,4.0,10.0,39,0.00,,,0.00,578.00,VWS V14.01,2013-07-17 22:56:00,
2013-07-17 17:01:00,86.1,57.5,29.98,North,-999,1.0,5.0,38,0.00,,,0.00,608.00,VWS V14.01,2013-07-17 23:01:00,
2013-07-17 17:06:00,86.2,57.6,29.98,North,-999,3.0,10.0,38,0.00,,,0.00,608.00,VWS V14.01,2013-07-17 23:06:00,
2013-07-17 17:11:00,86.5,58.6,29.98,North,-999,3.0,10.0,39,0.00,,,0.00,598.00,VWS V14.01,2013-07-17 23:11:00,
2013-07-17 17:16:00,86.9,58.3,29.97,North,-999,8.0,10.0,38,0.00,,,0.00,591.00,VWS V14.01,2013-07-17 23:16:00,
2013-07-17 17:21:00,87.2,57.0,29.98,North,-999,2.0,7.0,36,0.00,,,0.00,592.00,VWS V14.01,2013-07-17 23:21:00,
2013-07-17 17:26:00,87.4,57.2,29.98,North,-999,2.0,7.0,36,0.00,,,0.00,591.00,VWS V14.01,2013-07-17 23:26:00,
2013-07-17 17:31:00,87.5,58.8,29.97,North,-999,0.0,2.0,38,0.00,,,0.00,592.00,VWS V14.01,2013-07-17 23:31:00,
2013-07-17 17:36:00,87.7,57.5,29.98,North,-999,4.0,5.0,36,0.00,,,0.00,578.00,VWS V14.01,2013-07-17 23:36:00,
2013-07-17 17:41:00,87.3,58.6,29.98,North,-999,6.0,10.0,38,0.00,,,0.00,529.00,VWS V14.01,2013-07-17 23:41:00,
2013-07-17 17:46:00,87.1,58.4,29.98,North,-999,3.0,11.0,38,0.00,,,0.00,494.00,VWS V14.01,2013-07-17 23:46:00,
2013-07-17 17:51:00,86.6,60.1,29.98,North,-999,6.0,12.0,41,0.00,,,0.00,471.00,VWS V14.01,2013-07-17 23:51:00,
2013-07-17 17:56:00,86.8,60.3,29.98,North,-999,8.0,12.0,41,0.00,,,0.00,454.00,VWS V14.01,2013-07-17 23:56:00,
2013-07-17 18:01:00,86.7,59.5,29.98,North,-999,11.0,11.0,40,0.00,,,0.00,425.00,VWS V14.01,2013-07-18 00:01:00,
2013-07-17 18:06:00,86.5,60.7,29.98,North,-999,15.0,19.0,42,0.00,,,0.00,410.00,VWS V14.01,2013-07-18 00:06:00,
2013-07-17 18:11:00,83.9,60.3,29.98,North,-999,15.0,23.0,45,0.00,,,0.00,394.00,VWS V14.01,2013-07-18 00:11:00,
2013-07-17 18:16:00,82.6,60.3,29.98,North,-999,9.0,23.0,47,0.00,,,0.00,374.00,VWS V14.01,2013-07-18 00:16:00,
2013-07-17 18:21:00,82.0,60.4,29.97,North,-999,15.0,22.0,48,0.00,,,0.00,360.00,VWS V14.01,2013-07-18 00:21:00,
2013-07-17 18:26:00,81.3,60.9,29.97,North,-999,13.0,24.0,50,0.00,,,0.00,348.00,VWS V14.01,2013-07-18 00:26:00,
2013-07-17 18:31:00,81.0,60.6,29.97,North,-999,11.0,18.0,50,0.00,,,0.00,329.00,VWS V14.01,2013-07-18 00:31:00,
2013-07-17 18:36:00,80.9,60.0,29.97,North,-999,12.0,21.0,49,0.00,,,0.00,316.00,VWS V14.01,2013-07-18 00:36:00,
2013-07-17 18:41:00,81.0,60.6,29.97,North,-999,16.0,20.0,50,0.00,,,0.00,306.00,VWS V14.01,2013-07-18 00:41:00,
2013-07-17 18:46:00,80.9,60.0,29.96,North,-999,17.0,20.0,49,0.00,,,0.00,288.00,VWS V14.01,2013-07-18 00:46:00,
2013-07-17 18:51:00,81.0,60.6,29.96,North,-999,16.0,19.0,50,0.00,,,0.00,271.00,VWS V14.01,2013-07-18 00:51:00,
2013-07-17 18:56:00,81.0,61.2,29.96,North,-999,10.0,19.0,51,0.00,,,0.00,257.00,VWS V14.01,2013-07-18 00:56:00,
2013-07-17 19:01:00,80.9,61.1,29.96,North,-999,8.0,12.0,51,0.00,,,0.00,237.00,VWS V14.01,2013-07-18 01:01:00,
2013-07-17 19:06:00,81.0,60.6,29.96,North,-999,12.0,12.0,50,0.00,,,0.00,221.00,VWS V14.01,2013-07-18 01:06:00,
2013-07-17 19:11:00,80.8,61.0,29.97,North,-999,8.0,13.0,51,0.00,,,0.00,200.00,VWS V14.01,2013-07-18 01:11:00,
2013-07-17 19:16:00,80.5,60.7,29.97,North,-999,12.0,15.0,51,0.00,,,0.00,42.00,VWS V14.01,2013-07-18 01:16:00,
2013-07-17 19:21:00,79.8,60.1,29.98,North,-999,7.0,13.0,51,0.00,,,0.00,40.00,VWS V14.01,2013-07-18 01:21:00,
2013-07-17 19:26:00,79.2,60.1,29.98,North,-999,13.0,16.0,52,0.00,,,0.00,39.00,VWS V14.01,2013-07-18 01:26:00,
2013-07-17 19:31:00,78.8,59.7,29.99,North,-999,12.0,17.0,52,0.00,,,0.00,49.00,VWS V14.01,2013-07-18 01:31:00,
2013-07-17 19:36:00,78.7,60.2,29.99,North,-999,11.0,17.0,53,0.00,,,0.00,58.00,VWS V14.01,2013-07-18 01:36:00,
2013-07-17 19:41:00,78.7,57.4,30.00,North,-999,19.0,25.0,48,0.00,,,0.00,67.00,VWS V14.01,2013-07-18 01:41:00,
2013-07-17 19:46:00,78.1,55.7,29.99,North,-999,24.0,31.0,46,0.00,,,0.00,51.00,VWS V14.01,2013-07-18 01:46:00,
2013-07-17 19:51:00,76.5,54.8,29.99,North,-999,18.0,26.0,47,0.00,,,0.00,18.00,VWS V14.01,2013-07-18 01:51:00,
2013-07-17 19:56:00,75.0,55.1,30.00,North,-999,14.0,26.0,50,0.00,,,0.00,11.00,VWS V14.01,2013-07-18 01:56:00,
2013-07-17 20:01:00,74.1,54.8,29.99,North,-999,10.0,20.0,51,0.00,,,0.00,11.00,VWS V14.01,2013-07-18 02:01:00,
2013-07-17 20:06:00,73.7,55.0,30.00,North,-999,12.0,20.0,52,0.00,,,0.00,9.00,VWS V14.01,2013-07-18 02:06:00,
2013-07-17 20:11:00,73.3,55.7,30.00,North,-999,14.0,17.0,54,0.00,,,0.00,9.00,VWS V14.01,2013-07-18 02:11:00,
2013-07-17 20:16:00,73.6,55.4,30.00,North,-999,9.0,19.0,53,0.00,,,0.00,9.00,VWS V14.01,2013-07-18 02:16:00,
2013-07-17 20:21:00,73.5,56.4,30.00,North,-999,13.0,19.0,55,0.00,,,0.00,5.00,VWS V14.01,2013-07-18 02:21:00,
2013-07-17 20:26:00,73.3,56.2,30.00,North,-999,12.0,19.0,55,0.00,,,0.00,5.00,VWS V14.01,2013-07-18 02:26:00,
2013-07-17 20:31:00,74.3,56.1,30.00,North,-999,19.0,20.0,53,0.00,,,0.00,0.00,VWS V14.01,2013-07-18 02:31:00,
2013-07-17 20:36:00,75.1,55.8,30.00,North,-999,16.0,20.0,51,0.00,,,0.00,0.00,VWS V14.01,2013-07-18 02:36:00,
2013-07-17 20:41:00,75.5,55.6,30.00,North,-999,13.0,18.0,50,0.00,,,0.00,0.00,VWS V14.01,2013-07-18 02:41:00,
2013-07-17 20:46:00,75.3,55.4,30.00,North,-999,13.0,18.0,50,0.00,,,0.00,0.00,VWS V14.01,2013-07-18 02:46:00,
2013-07-17 20:51:00,75.4,56.0,30.00,North,-999,11.0,18.0,51,0.00,,,0.00,0.00,VWS V14.01,2013-07-18 02:51:00,
2013-07-17 20:56:00,75.6,56.2,30.00,North,-999,19.0,21.0,51,0.00,,,0.00,0.00,VWS V14.01,2013-07-18 02:56:00,
2013-07-17 21:01:00,75.6,56.2,30.00,North,-999,20.0,24.0,51,0.00,,,0.00,0.00,VWS V14.01,2013-07-18 03:01:00,
2013-07-17 21:06:00,75.5,56.7,30.00,North,-999,15.0,25.0,52,0.00,,,0.00,0.00,VWS V14.01,2013-07-18 03:06:00,
2013-07-17 21:11:00,74.6,56.9,30.00,North,-999,15.0,25.0,54,0.00,,,0.00,0.00,VWS V14.01,2013-07-18 03:11:00,
2013-07-17 21:16:00,74.3,57.1,30.01,North,-999,17.0,25.0,55,0.00,,,0.00,0.00,VWS V14.01,2013-07-18 03:16:00,
2013-07-17 21:21:00,74.0,57.3,30.01,North,-999,28.0,28.0,56,0.00,,,0.00,0.00,VWS V14.01,2013-07-18 03:21:00,
2013-07-17 21:26:00,73.9,57.7,30.01,North,-999,14.0,28.0,57,0.00,,,0.00,0.00,VWS V14.01,2013-07-18 03:26:00,
2013-07-17 21:31:00,74.0,57.8,30.01,North,-999,20.0,22.0,57,0.00,,,0.00,0.00,VWS V14.01,2013-07-18 03:31:00,
2013-07-17 21:36:00,74.2,56.5,30.01,North,-999,22.0,27.0,54,0.00,,,0.00,0.00,VWS V14.01,2013-07-18 03:36:00,
2013-07-17 21:41:00,73.5,57.3,30.01,North,-999,22.0,25.0,57,0.00,,,0.00,0.00,VWS V14.01,2013-07-18 03:41:00,
2013-07-17 21:46:00,73.5,56.4,30.01,North,-999,16.0,28.0,55,0.00,,,0.00,0.00,VWS V14.01,2013-07-18 03:46:00,
2013-07-17 21:51:00,73.3,57.2,30.03,North,-999,22.0,25.0,57,0.00,,,0.00,0.00,VWS V14.01,2013-07-18 03:51:00,
2013-07-17 21:56:00,72.6,58.4,30.03,North,-999,20.0,29.0,61,0.00,,,0.00,0.00,VWS V14.01,2013-07-18 03:56:00,
2013-07-17 22:01:00,71.7,58.9,30.03,North,-999,21.0,26.0,64,0.00,,,0.00,0.00,VWS V14.01,2013-07-18 04:01:00,
2013-07-17 22:06:00,69.8,59.2,30.03,North,-999,17.0,26.0,69,0.00,,,0.00,0.00,VWS V14.01,2013-07-18 04:06:00,
2013-07-17 22:11:00,69.1,58.9,30.03,North,-999,18.0,22.0,70,0.00,,,0.00,0.00,VWS V14.01,2013-07-18 04:11:00,
2013-07-17 22:16:00,69.6,58.2,30.03,North,-999,11.0,25.0,67,0.00,,,0.00,0.00,VWS V14.01,2013-07-18 04:16:00,
2013-07-17 22:21:00,69.9,58.0,30.03,North,-999,14.0,26.0,66,0.00,,,0.00,0.00,VWS V14.01,2013-07-18 04:21:00,
2013-07-17 22:26:00,69.9,58.9,30.03,North,-999,26.0,26.0,68,0.00,,,0.00,0.00,VWS V14.01,2013-07-18 04:26:00,
2013-07-17 22:31:00,68.0,58.3,30.04,North,-999,22.0,30.0,71,0.10,,,0.10,0.00,VWS V14.01,2013-07-18 04:31:00,
2013-07-17 22:36:00,68.5,57.9,30.04,North,-999,5.0,30.0,69,0.17,,,0.17,0.00,VWS V14.01,2013-07-18 04:36:00,
2013-07-17 22:41:00,70.6,57.8,30.04,North,-999,7.0,7.0,64,0.18,,,0.18,0.00,VWS V14.01,2013-07-18 04:41:00,
2013-07-17 22:46:00,68.9,59.1,30.05,North,-999,20.0,26.0,71,0.18,,,0.18,0.00,VWS V14.01,2013-07-18 04:46:00,
2013-07-17 22:51:00,67.6,59.0,30.05,North,-999,16.0,25.0,74,0.18,,,0.18,0.00,VWS V14.01,2013-07-18 04:51:00,
2013-07-17 22:56:00,67.1,59.3,30.05,North,-999,17.0,25.0,76,0.18,,,0.18,0.00,VWS V14.01,2013-07-18 04:56:00,
2013-07-17 23:01:00,66.3,59.6,30.05,North,-999,9.0,14.0,79,0.18,,,0.18,0.00,VWS V14.01,2013-07-18 05:01:00,
2013-07-17 23:06:00,66.2,59.5,30.04,North,-999,11.0,16.0,79,0.18,,,0.18,0.00,VWS V14.01,2013-07-18 05:06:00,
2013-07-17 23:11:00,66.3,59.6,30.04,North,-999,7.0,14.0,79,0.18,,,0.18,0.00,VWS V14.01,2013-07-18 05:11:00,
2013-07-17 23:16:00,66.2,59.9,30.04,North,-999,6.0,14.0,80,0.18,,,0.18,0.00,VWS V14.01,2013-07-18 05:16:00,
2013-07-17 23:21:00,65.6,60.0,30.03,North,-999,9.0,9.0,82,0.18,,,0.18,0.00,VWS V14.01,2013-07-18 05:21:00,
2013-07-17 23:26:00,65.5,59.9,30.03,North,-999,9.0,11.0,82,0.18,,,0.18,0.00,VWS V14.01,2013-07-18 05:26:00,
2013-07-17 23:31:00,65.9,59.6,30.03,North,-999,7.0,10.0,80,0.18,,,0.18,0.00,VWS V14.01,2013-07-18 05:31:00,
2013-07-17 23:36:00,66.1,60.1,30.04,North,-999,5.0,10.0,81,0.18,,,0.18,0.00,VWS V14.01,2013-07-18 05:36:00,
2013-07-17 23:41:00,65.7,60.4,30.03,North,-999,4.0,6.0,83,0.00,,,0.18,0.00,VWS V14.01,2013-07-18 05:41:00,
2013-07-17 23:46:00,65.2,60.2,30.03,North,-999,5.0,8.0,84,0.00,,,0.18,0.00,VWS V14.01,2013-07-18 05:46:00,
2013-07-17 23:51:00,65.2,60.2,30.04,North,-999,3.0,7.0,84,0.00,,,0.18,0.00,VWS V14.01,2013-07-18 05:51:00,
2013-07-17 23:56:00,65.6,60.0,30.05,North,-999,4.0,10.0,82,0.00,,,0.18,0.00,VWS V14.01,2013-07-18 05:56:00,